Regional Weather Roundup
Issued by NWS Green Bay, WI

Home | Current Version | Previous Version | Text Only | Print | Product List | Glossary On
Versions: 1 2 3 4 5 6 7 8 9 10 11 12 13 14 15 16 17 18 19 20 21 22 23 24 25 26 27 28 29 30 31 32 33 34 35 36 37 38 39 40 41 42 43 44 45 46 47 48 49 50
000
ASUS43 KGRB 241710
RWRGRB

NORTH-CENTRAL AND NORTHEAST WISCONSIN REGIONAL WEATHER ROUNDUP
NATIONAL WEATHER SERVICE GREEN BAY WI
1200 PM CDT FRI OCT 24 2014

WIZ005-009-010>012-018-019-241800-
NORTH CENTRAL WISCONSIN

CITY           SKY/WX    TMP DP  RH WIND       PRES   REMARKS
IRONWOOD       PTSUNNY   55  48  76 S7        29.86F
MANITOWISH WTR CLOUDY    48  47  95 S8        29.92F
ARBOR VITAE    CLOUDY    51  50  97 S9        29.93F
EAGLE RIVER    CLOUDY    48  48 100 CALM      29.93F
LAND O LAKES   PTSUNNY   53  48  83 S5        29.93F
RHINELANDER    CLOUDY    47  46  97 SW9       29.96F
PHILLIPS       MOSUNNY   52  48  85 S8        29.92F
ANTIGO         CLOUDY    47  47 100 S6        29.98S FOG
TOMAHAWK       CLOUDY    47  47  97 CALM      29.96F
MERRILL        CLOUDY    47  47 100 S6        29.98S
$$

WIZ013-073-241800-
NORTHEAST WISCONSIN

CITY           SKY/WX    TMP DP  RH WIND       PRES   REMARKS
IRON MOUNTAIN  CLOUDY    47  45  93 S5        29.95F
MARINETTE      CLOUDY    46  45  93 W5        29.97F
OCONTO         CLOUDY    49  48  99 W5        29.99F
$$

WIZ017-030-035>037-045-241800-
CENTRAL WISCONSIN

CITY           SKY/WX    TMP DP  RH WIND       PRES   REMARKS
MEDFORD        CLOUDY    47  47 100 S7        29.96F FOG
WAUSAU         CLOUDY    47  46  97 SW6       29.98S FOG
MOSINEE        FOG       45  45 100 S6        30.00S VSB 1/4
MARSHFIELD     CLOUDY    49  48  97 S7        29.98S FOG
WISC RAPIDS    CLOUDY    49  48  97 S6        30.01S FOG
STEVENS POINT  CLOUDY    46  46 100 S6        30.00F FOG
WAUPACA        CLOUDY    51  49  96 S7        30.01S FOG
SHAWANO        CLOUDY    50  48  94 S3        30.00S FOG
CLINTONVILLE   CLOUDY    48  46  93 SW7       30.00F FOG
$$

WIZ038-039-048-051-241800-
FOX VALLEY

CITY           SKY/WX    TMP DP  RH WIND       PRES   REMARKS
NWS GREEN BAY  CLOUDY    50  48  93 SW8       30.00F FOG
APPLETON       FOG       48  48 100 SW6       30.02S VSB 3/4
OSHKOSH        CLOUDY    50  48  93 SW8       30.01F
FOND DU LAC    CLOUDY    51  48  89 SW8       30.02F
$$

WIZ022-050-052-241800-
EAST CENTRAL WISCONSIN

CITY           SKY/WX    TMP DP  RH WIND       PRES   REMARKS
STURGEON BAY   CLOUDY    48  45  87 SW8       29.99F
MANITOWOC      CLOUDY    52  49  89 SW6       30.01F
SHEBOYGAN      CLOUDY    53  48  83 S6        30.01F
$$

LMZ563-521-522-541>543-241800-
LAKESHORE

STATION/POSITION TIME  TEMP    WIND        PRES    VSBY  WAVE
                       AIR SEA DIR/SP/G                  HT/PER
                 (UTC) (F)     (DEG/KT/KT) (MB)    (MI)  (FT/S)
SHEBOYGAN LKSHOR 1700   51 50  190/  5/  6 1016.8F
KEWAUNEE LKSHORE 1700   51     230/  4/  5 1015.1F
ALGOMA MARINA    1600          280/  5/  7   N/A
NORTHPORT PIER   1700   50     210/  3/ 11 1015.6F
N MID LAKE BUOY  1700   50 51  230/ 12/ 14 1015.4F         1/ 5
SISTER BAY LKSHO 1600          240/ 12/ 13   N/A
CHAMBERS ISLAND  1700   48     210/  7/  9 1015.6F
MENOMINEE LKSHOR 1700   47     240/  5/  7 1016.0F
$$



USA.gov is the U.S. government's official web portal to all federal, state and local government web resources and services.